Regional Weather Roundup
Issued by NWS

Home | Current Version | Previous Version | Graphics & Text | Print | Product List | Glossary Off
Versions: 1 2 3 4 5 6 7 8 9 10 11 12 13 14 15 16 17 18 19 20 21 22 23 24 25 26 27 28 29 30 31 32 33 34 35 36 37 38 39 40 41 42 43 44 45 46 47 48 49 50

000
ASUS43 KMPX 161401
RWRMN
WEATHER ROUNDUP FOR MINNESOTA
NATIONAL WEATHER SERVICE TWIN CITIES/CHANHASSEN MN
800 AM CST SAT DEC 16 2017


NOTE: "FAIR" INDICATES FEW OR NO CLOUDS BELOW 12,000 FEET WITH NO
SIGNIFICANT WEATHER AND/OR OBSTRUCTIONS TO VISIBILITY. N/A MEANS
CURRENT SKY AND/OR WEATHER CONDITIONS ARE NOT AVAILABLE.

MNZ060>063-068>070-161500-
   Twin Cities Metro

CITY           SKY/WX    TMP DP  RH WIND       PRES   REMARKS
TWIN CITIES    CLOUDY    25  24  96 E8        29.79R WCI  16
ST PAUL        CLOUDY    25  23  92 E5        29.81R WCI  19
CRYSTAL        CLOUDY    24  20  84 E7        29.78R WCI  16
BLAINE         CLOUDY    27  27 100 E9        29.78R WCI  17
LAKEVILLE      CLOUDY    25  25 100 NE7       29.76R WCI  17
EDEN PRAIRIE   CLOUDY    27  23  85 NE9       29.75R WCI  18
SOUTH ST PAUL  CLOUDY    26  24  96 E3        29.79R
LAKE ELMO      CLOUDY    27  23  86 E6        29.81R WCI  20
$$
MNZ001>005-007-008-013>017-022>024-027-028-161500-
   Northwest Minnesota

CITY           SKY/WX    TMP DP  RH WIND       PRES   REMARKS
BEMIDJI        CLOUDY    16  13  87 E7        29.78R WCI   6
HALLOCK        CLOUDY    16  12  86 E8        29.80S WCI   5
ROSEAU         LGT SNOW  10   5  79 E10       29.82R WCI  -3
WARROAD        LGT SNOW   9   3  78 E10       29.84R WCI  -6
CROOKSTON      CLOUDY    21  19  93 SE7       29.80R WCI  13
FOSSTON        CLOUDY    18  16  93 E3        29.79R
DETROIT LAKES  CLOUDY    23  21  93 SE8       29.78R WCI  14
MOORHEAD       CLOUDY    25  21  86 CALM      29.80R
PARK RAPIDS    CLOUDY    19  15  84 E6        29.77R WCI  11
MAHNOMEN       CLOUDY    22  18  87 S6        29.75R WCI  14
$$
MNZ006-009>011-018-025>026-161500-
   North Central Minnesota

CITY           SKY/WX    TMP DP  RH WIND       PRES   REMARKS
BAUDETTE       FLURRIES   5   1  83 E12       29.83R WCI -11
FLAG ISLAND    LGT SNOW   1  -2  85 E7        29.85S WCI -11
INTL FALLS     CLOUDY     0  -6  76 E8        29.87R WCI -14
WASKISH        CLOUDY    10   7  85 E7        29.83R WCI   0
BIG FORK       CLOUDY    10   7  85 E3        29.82R
LONGVILLE      CLOUDY    18  14  86 CALM      29.79R
GRAND RAPIDS   FLURRIES  14  12  92 E5        29.84R WCI   6
CRANE LAKE     CLOUDY     0  -4  85 CALM      29.92R
ORR            CLOUDY     5   0  78 CALM      29.82R
COOK           CLOUDY     5   1  85 CALM      29.85R
WALKER         CLOUDY    17  13  86 E3        29.78R
$$
MNZ012-019>021-037-161500-
   Northeast Minnesota

CITY           SKY/WX    TMP DP  RH WIND       PRES   REMARKS
DULUTH         CLOUDY    17  11  77 SE13      29.83R WCI   4
ELY            CLOUDY     1  -2  85 CALM      29.86R
HIBBING        CLOUDY    13  10  88 E3        29.83R
EVELETH        CLOUDY    12   8  82 E3        29.84R
DULUTH HARBOR  CLOUDY    21  12  68 E10       29.91R WCI  10
TWO HARBORS    FLURRIES  25  19  80 E8        29.85R WCI  16
SILVER BAY     CLOUDY    21  18  86 E8        29.86R WCI  12
GRAND MARAIS     N/A      9   2  73 VRB7G17   29.97R WCI  -2
G MARAIS ARPRT FLURRIES  -2  -8  78 N9        29.86R WCI -18
$$
MNZ029>031-032-039>041-046>048-054>057-064-161500-
   West Central Minnesota

CITY           SKY/WX    TMP DP  RH WIND       PRES   REMARKS
FERGUS FALLS   CLOUDY    23  21  93 E3        29.81R
WHEATON        CLOUDY    27  25  93 CALM      29.79R
MORRIS         CLOUDY    27  25  93 SE7       29.77R FOG     WCI  19
ALEXANDRIA     CLOUDY    22  21  96 E8        29.76R WCI  12
ELBOW LAKE     CLOUDY    24  23  94 SE7       29.77R FOG     WCI  16
WADENA         MIX PCPN  19  18  93 E8        29.77R WCI   9
GLENWOOD       CLOUDY    21  21 100 NE8       29.76R FOG     WCI  12
APPLETON         N/A     30  28  93 CALM      29.77R
BENSON         CLOUDY    27  25  93 SE5       29.78R WCI  21
ORTONVILLE     CLOUDY    32  28  86 NW5       29.76R WCI  27
MADISON        CLOUDY    36  32  87 NW3       29.76R
WILLMAR        CLOUDY    27  27 100 E7        29.77R FOG     WCI  19
$$
MNZ033>034-036-042>043-049>051-058-059-161500-
   Central Minnesota

CITY           SKY/WX    TMP DP  RH WIND       PRES   REMARKS
ST CLOUD       CLOUDY    21  19  92 E7        29.79R WCI  12
SAUK CENTRE    CLOUDY    22  20  93 NE6       29.77R WCI  14
PAYNESVILLE    CLOUDY    23  23 100 E7        29.78R WCI  15
AITKIN         CLOUDY    18  10  73 E6        29.78F WCI   9
PINE RIVER     CLOUDY    18  12  79 E6        29.83R FOG     WCI   9
BRAINERD       LGT SNOW  20  14  77 VRB3      29.79R
STAPLES        MIX PCPN  19  16  86 E5        29.78R WCI  13
LITTLE FALLS   CLOUDY    21  18  86 E5        29.79R WCI  15
LITCHFIELD     CLOUDY    25  25 100 E8        29.77R FOG     WCI  16
BUFFALO        CLOUDY    24  22  92 NE8       29.79R WCI  15
MAPLE LAKE     CLOUDY    24  23  96 NE7       29.78S WCI  16
HUTCHINSON     CLOUDY    27  27  97 NE8       29.77R FOG     WCI  19
$$
MNZ037-044-045-052-053-161500-
   East Central Minnesota

CITY           SKY/WX    TMP DP  RH WIND       PRES   REMARKS
PRINCETON      CLOUDY    21  19  93 NE6       29.80R WCI  14
MORA           CLOUDY    19  14  79 E3        29.83R
CAMBRIDGE      PTCLDY    23  16  74 NE3       29.81R
RUSH CITY      CLOUDY    21  17  84 NE5       29.81R WCI  14
MOOSE LAKE     CLOUDY    19  10  68 E3        29.82R
HINCKLEY       CLOUDY    21  16  79 E5        29.82R WCI  15
CLOQUET        CLOUDY    16   9  73 E8        29.83R WCI   5
MCGREGOR       CLOUDY    19  12  73 E13       29.81S WCI   7
$$
MNZ071>073-080-081-089-090-097-098-161500-
   Southwest Minnesota

CITY           SKY/WX    TMP DP  RH WIND       PRES   REMARKS
MONTEVIDEO     CLOUDY    28  28 100 CALM      29.77R
GRANITE FALLS  CLOUDY    30  28  93 CALM      29.76R
CANBY          CLOUDY    38  31  76 NW5       29.77R
MARSHALL       MOCLDY    29  25  85 W8        29.76R WCI  21
REDWOOD FALLS  CLOUDY    27  25  92 NE5       29.76R WCI  22
OLIVIA         CLOUDY    30  28  93 NE7       29.75R FOG     WCI  23
PIPESTONE      CLOUDY    28  25  86 N7        29.74R WCI  21
WINDOM           N/A     30  18  59 NW7       29.73R WCI  23
WORTHINGTON    CLEAR     30  25  81 NW8       29.74R WCI  22
JACKSON        CLOUDY    30  25  80 W3        29.74R
SLAYTON        CLEAR     26  24  90 NW8       29.73R WCI  18
$$
MNZ065>067-074>077-082>085-091>093-161500-
   South Central Minnesota

CITY           SKY/WX    TMP DP  RH WIND       PRES   REMARKS
MANKATO        CLOUDY    25  22  88 CALM      29.75R
NEW ULM        CLEAR     25  21  86 N3        29.75R
ST JAMES       CLOUDY    28  25  86 W9        29.75R WCI  20
FAIRMONT       CLOUDY    28  24  85 W7        29.74R WCI  21
GLENCOE        CLOUDY    28  28 100 NE5       29.76R FOG     WCI  23
FARIBAULT      CLOUDY    21  21 100 N3        29.75R FOG
OWATONNA       CLOUDY    25  21  86 CALM      29.72R
WASECA         CLOUDY    25  23  93 CALM      29.74R
$$
MNZ078>079-086>088-094>096-161500-
   Southeast Minnesota

CITY           SKY/WX    TMP DP  RH WIND       PRES   REMARKS
ROCHESTER      CLOUDY    22  21  96 SE6       29.72S WCI  14
RED WING       CLOUDY    27  23  86 E7        29.78R WCI  19
STANTON        CLOUDY    26  24  91 NE8       29.75R WCI  18
DODGE CENTER   CLOUDY    21  19  93 CALM      29.72R
WINONA         CLOUDY    25  25 100 CALM      29.80R FOG
AUSTIN         CLOUDY    23  19  86 SE6       29.72S WCI  16
PRESTON        CLOUDY    26  22  86 CALM      29.74S
$$
ABBREVIATIONS USED IN REMARKS
   TC - TEMPERATURES IN CELSIUS
  WCI - WIND CHILL INDEX
   HX - HEAT INDEX
  VSB - VISIBILITY
$$




USA.gov is the U.S. government's official web portal to all federal, state and local government web resources and services.